| time (UTC) | temp C | wind direction | speed KPH | gust KPH | rain 1hr cm | rain 24hr cm | rain mn cm | humidity % | barometer mb |
| 20260509054538 | 10 | 244 | 9.7 | 17.7 | 0.00 | 0.00 | 0.00 | 66 | 1019.0 |
| 20260509053051 | 11 | 227 | 6.4 | 12.9 | 0.00 | 0.00 | 0.00 | 64 | 1019.2 |
| 20260509051534 | 10 | 230 | 8.0 | 19.3 | 0.00 | 0.00 | 0.00 | 64 | 1018.9 |
| 20260509050034 | 10 | 270 | 4.8 | 12.9 | 0.00 | 0.00 | 0.00 | 63 | 1018.9 |
| 20260509044532 | 11 | 229 | 6.4 | 11.3 | 0.00 | 0.00 | 0.00 | 61 | 1018.6 |
| 20260509043040 | 11 | 241 | 4.8 | 14.5 | 0.00 | 0.00 | 0.00 | 59 | 1018.6 |
| 20260509041527 | 12 | 251 | 12.9 | 29.0 | 0.00 | 0.00 | 0.00 | 57 | 1018.4 |
| 20260509040026 | 12 | 257 | 16.1 | 27.4 | 0.00 | 0.00 | 0.00 | 56 | 1017.8 |
| 20260509034524 | 12 | 246 | 11.3 | 24.1 | 0.00 | 0.00 | 0.00 | 55 | 1017.8 |
| 20260509033022 | 12 | 268 | 16.1 | 27.4 | 0.00 | 0.00 | 0.00 | 53 | 1017.7 |
| 20260509031519 | 12 | 230 | 14.5 | 22.5 | 0.00 | 0.00 | 0.00 | 52 | 1017.4 |
| 20260509030017 | 13 | 268 | 17.7 | 30.6 | 0.00 | 0.00 | 0.00 | 50 | 1017.1 |
| 20260509024516 | 13 | 256 | 19.3 | 29.0 | 0.00 | 0.00 | 0.00 | 48 | 1016.8 |
| 20260509023015 | 15 | 246 | 17.7 | 30.6 | 0.00 | 0.00 | 0.00 | 47 | 1016.6 |
| 20260509021512 | 15 | 258 | 25.7 | 38.6 | 0.00 | 0.00 | 0.00 | 45 | 1016.3 |
| 20260509020011 | 15 | 263 | 25.7 | 38.6 | 0.00 | 0.00 | 0.00 | 44 | 1016.2 |
| 20260509014520 | 16 | 273 | 27.4 | 41.8 | 0.00 | 0.00 | 0.00 | 41 | 1016.0 |
| 20260509013010 | 16 | 272 | 27.4 | 40.2 | 0.00 | 0.00 | 0.00 | 40 | 1016.1 |
| 20260509011508 | 17 | 268 | 25.7 | 35.4 | 0.00 | 0.00 | 0.00 | 39 | 1016.0 |
| 20260509010008 | 17 | 250 | 24.1 | 40.2 | 0.00 | 0.00 | 0.00 | 39 | 1016.2 |
| 20260509004509 | 17 | 272 | 24.1 | 37.0 | 0.00 | 0.00 | 0.00 | 34 | 1016.0 |
| 20260509003007 | 17 | 263 | 22.5 | 37.0 | 0.00 | 0.00 | 0.00 | 34 | 1015.9 |
| 20260509001508 | 17 | 263 | 22.5 | 35.4 | 0.00 | 0.00 | 0.00 | 33 | 1016.0 |
| 20260509000005 | 18 | 277 | 22.5 | 32.2 | 0.00 | 0.00 | 0.00 | 33 | 1015.8 |
| 20260508234504 | 18 | 257 | 22.5 | 33.8 | 0.00 | 0.00 | 0.00 | 33 | 1015.8 |
| 20260508233004 | 18 | 249 | 20.9 | 33.8 | 0.00 | 0.00 | 0.00 | 36 | 1015.8 |
| 20260508231503 | 19 | 264 | 16.1 | 37.0 | 0.00 | 0.00 | 0.00 | 37 | 1016.0 |
| 20260508230004 | 19 | 275 | 19.3 | 32.2 | 0.00 | 0.00 | 0.00 | 30 | 1016.0 |
| 20260508224507 | 18 | 288 | 16.1 | 27.4 | 0.00 | 0.00 | 0.00 | 31 | 1016.0 |
| 20260508223002 | 18 | 261 | 17.7 | 29.0 | 0.00 | 0.00 | 0.00 | 29 | 1015.8 |
| 20260508221600 | 18 | 261 | 19.3 | 35.4 | 0.00 | 0.00 | 0.00 | 28 | 1015.7 |
| 20260508220058 | 19 | 260 | 22.5 | 40.2 | 0.00 | 0.00 | 0.00 | 32 | 1015.8 |
| 20260508214556 | 18 | 258 | 24.1 | 38.6 | 0.00 | 0.00 | 0.00 | 37 | 1015.7 |
| 20260508213058 | 18 | 242 | 20.9 | 33.8 | 0.00 | 0.00 | 0.00 | 40 | 1015.7 |
| 20260508211555 | 18 | 301 | 20.9 | 30.6 | 0.00 | 0.00 | 0.00 | 38 | 1015.6 |
| 20260508210054 | 18 | 274 | 20.9 | 29.0 | 0.00 | 0.00 | 0.00 | 37 | 1015.6 |
| 20260508204553 | 18 | 281 | 17.7 | 24.1 | 0.00 | 0.00 | 0.00 | 34 | 1015.5 |
| 20260508203051 | 17 | 257 | 20.9 | 32.2 | 0.00 | 0.00 | 0.00 | 41 | 1015.6 |
| 20260508201551 | 17 | 250 | 19.3 | 29.0 | 0.00 | 0.00 | 0.00 | 42 | 1015.6 |
| 20260508200050 | 17 | 257 | 20.9 | 30.6 | 0.00 | 0.00 | 0.00 | 48 | 1015.5 |
| 20260508194602 | 17 | 277 | 17.7 | 27.4 | 0.00 | 0.00 | 0.00 | 49 | 1015.3 |
| 20260508193105 | 17 | 251 | 12.9 | 27.4 | 0.00 | 0.00 | 0.00 | 48 | 1015.0 |
| 20260508191557 | 17 | 285 | 16.1 | 24.1 | 0.00 | 0.00 | 0.00 | 50 | 1015.0 |
| 20260508190103 | 18 | 268 | 22.5 | 32.2 | 0.00 | 0.00 | 0.00 | 46 | 1014.9 |
| 20260508184544 | 18 | 282 | 14.5 | 24.1 | 0.00 | 0.00 | 0.00 | 45 | 1015.0 |
| 20260508183044 | 18 | 247 | 16.1 | 25.7 | 0.00 | 0.00 | 0.00 | 43 | 1015.2 |
| 20260508181545 | 17 | 263 | 11.3 | 24.1 | 0.00 | 0.00 | 0.00 | 52 | 1015.2 |
| 20260508180037 | 16 | 303 | 6.4 | 17.7 | 0.00 | 0.00 | 0.00 | 53 | 1015.3 |
| 20260508174537 | 16 | 272 | 4.8 | 14.5 | 0.00 | 0.00 | 0.00 | 54 | 1015.5 |
| 20260508173031 | 15 | 254 | 9.7 | 14.5 | 0.00 | 0.00 | 0.00 | 57 | 1015.7 |
| 20260508171540 | 15 | 236 | 9.7 | 22.5 | 0.00 | 0.00 | 0.00 | 57 | 1015.8 |
| 20260508170027 | 15 | 254 | 12.9 | 27.4 | 0.00 | 0.00 | 0.00 | 54 | 1015.7 |
| 20260508164526 | 14 | 233 | 11.3 | 24.1 | 0.00 | 0.00 | 0.00 | 54 | 1015.5 |
| 20260508163023 | 14 | 249 | 14.5 | 24.1 | 0.00 | 0.00 | 0.00 | 53 | 1015.5 |
| 20260508161534 | 13 | 260 | 8.0 | 14.5 | 0.00 | 0.00 | 0.00 | 58 | 1015.4 |
| 20260508160017 | 12 | 254 | 8.0 | 12.9 | 0.00 | 0.00 | 0.00 | 61 | 1015.4 |
| 20260508154520 | 12 | 248 | 8.0 | 14.5 | 0.00 | 0.00 | 0.00 | 61 | 1015.4 |
| 20260508153025 | 12 | 241 | 9.7 | 16.1 | 0.00 | 0.00 | 0.00 | 59 | 1015.4 |
| 20260508151512 | 12 | 232 | 9.7 | 16.1 | 0.00 | 0.00 | 0.00 | 58 | 1015.2 |
| 20260508150011 | 12 | 251 | 9.7 | 16.1 | 0.00 | 0.00 | 0.00 | 56 | 1015.3 |
| 20260508144510 | 13 | 265 | 11.3 | 20.9 | 0.00 | 0.00 | 0.00 | 52 | 1015.2 |
| 20260508143009 | 12 | 275 | 8.0 | 17.7 | 0.00 | 0.00 | 0.00 | 52 | 1015.2 |
| 20260508141507 | 13 | 220 | 6.4 | 20.9 | 0.00 | 0.00 | 0.00 | 49 | 1015.1 |
| 20260508140006 | 12 | 222 | 6.4 | 14.5 | 0.00 | 0.00 | 0.00 | 49 | 1015.1 |
| 20260508134600 | 12 | 239 | 4.8 | 11.3 | 0.00 | 0.00 | 0.00 | 49 | 1014.8 |
| 20260508133103 | 11 | 213 | 4.8 | 8.0 | 0.00 | 0.00 | 0.00 | 50 | 1014.7 |
| 20260508131557 | 10 | 239 | 4.8 | 9.7 | 0.00 | 0.00 | 0.00 | 50 | 1014.7 |
| 20260508130056 | 10 | 230 | 6.4 | 12.9 | 0.00 | 0.00 | 0.00 | 49 | 1014.7 |
| 20260508124555 | 10 | 225 | 3.2 | 9.7 | 0.00 | 0.00 | 0.00 | 46 | 1014.6 |
| 20260508123054 | 11 | 223 | 3.2 | 14.5 | 0.00 | 0.00 | 0.00 | 47 | 1014.5 |
| 20260508121552 | 10 | 213 | 8.0 | 17.7 | 0.00 | 0.00 | 0.00 | 43 | 1014.5 |
| 20260508120100 | 10 | 218 | 4.8 | 11.3 | 0.00 | 0.00 | 0.00 | 48 | 1014.4 |
| 20260508114559 | 10 | 237 | 6.4 | 11.3 | 0.00 | 0.00 | 0.00 | 49 | 1014.5 |
| 20260508113050 | 10 | 199 | 3.2 | 9.7 | 0.00 | 0.00 | 0.00 | 49 | 1014.6 |
| 20260508111546 | 10 | 222 | 4.8 | 9.7 | 0.00 | 0.00 | 0.00 | 46 | 1014.5 |
| 20260508110048 | 11 | 220 | 8.0 | 16.1 | 0.00 | 0.00 | 0.00 | 46 | 1014.5 |
| 20260508104545 | 11 | 195 | 6.4 | 12.9 | 0.00 | 0.00 | 0.00 | 46 | 1014.5 |
| 20260508103048 | 11 | 239 | 8.0 | 16.1 | 0.00 | 0.00 | 0.00 | 46 | 1014.4 |
| 20260508101642 | 11 | 225 | 8.0 | 14.5 | 0.00 | 0.00 | 0.00 | 45 | 1014.4 |
| 20260508100058 | 11 | 208 | 6.4 | 16.1 | 0.00 | 0.00 | 0.00 | 45 | 1014.3 |
| 20260508094543 | 11 | 213 | 9.7 | 19.3 | 0.00 | 0.00 | 0.00 | 44 | 1014.3 |
| 20260508093039 | 11 | 194 | 6.4 | 14.5 | 0.00 | 0.00 | 0.00 | 46 | 1014.2 |
| 20260508091546 | 11 | 225 | 6.4 | 12.9 | 0.00 | 0.00 | 0.00 | 43 | 1014.3 |
| 20260508090040 | 10 | 227 | 8.0 | 16.1 | 0.00 | 0.00 | 0.00 | 42 | 1014.4 |
| 20260508084533 | 10 | 159 | 4.8 | 12.9 | 0.00 | 0.00 | 0.00 | 39 | 1014.4 |
| 20260508083033 | 10 | 146 | 3.2 | 6.4 | 0.00 | 0.00 | 0.00 | 40 | 1014.3 |
| 20260508081530 | 11 | 104 | 4.8 | 9.7 | 0.00 | 0.00 | 0.00 | 35 | 1014.3 |
| 20260508080034 | 11 | 167 | 4.8 | 11.3 | 0.00 | 0.00 | 0.00 | 35 | 1014.2 |
| 20260508074531 | 10 | 129 | 6.4 | 11.3 | 0.00 | 0.00 | 0.00 | 32 | 1014.1 |
| 20260508073029 | 10 | 149 | 4.8 | 6.4 | 0.00 | 0.00 | 0.00 | 32 | 1014.0 |
| 20260508071532 | 10 | 163 | 4.8 | 8.0 | 0.00 | 0.00 | 0.00 | 32 | 1014.2 |
| 20260508070020 | 11 | 151 | 4.8 | 9.7 | 0.00 | 0.00 | 0.00 | 32 | 1014.1 |
| 20260508064526 | 11 | 202 | 3.2 | 9.7 | 0.00 | 0.00 | 0.00 | 30 | 1014.0 |
| 20260508063021 | 11 | 206 | 4.8 | 9.7 | 0.00 | 0.00 | 0.00 | 30 | 1014.0 |
| 20260508061518 | 11 | 209 | 4.8 | 9.7 | 0.00 | 0.00 | 0.00 | 27 | 1014.0 |
| 20260508060025 | 12 | 230 | 8.0 | 14.5 | 0.00 | 0.00 | 0.00 | 22 | 1014.1 |